Home   Weather   Swansea   Past weeks

Flag for United Kingdom Past Weather in Swansea, Wales, United Kingdom — Yesterday and Last 2 Weeks

Now
45 °F

Cool.


Feels Like: 39 °F
Forecast: 35 / 44 °F
Wind: 14 mph from South

Location: Mumbles

Current Time: Jan 22, 2017 at 12:44:03 pm

Latest Report: Jan 22, 2017 at 11:00 am


Visibility: N/A

Pressure: 30.28 "Hg

Humidity: 84%

Dew Point: 40 °F

Location of SwanseaLocation

Past Weather in Swansea — Graph

°F

Swansea Temperature Yesterday

Maximum temperature yesterday: 41 °F (at 1:00 pm)
Minimum temperature yesterday: 35 °F (at 7:00 am)
Average temperature yesterday: 38 °F

High & Low Weather Summary for the Past Weeks

 TemperatureHumidityPressure
High52 °F (Jan 7, 1:00 pm)100% (Jan 7, 4:00 pm)30.69 "Hg (Jan 7, 4:00 pm)
Low35 °F (Jan 21, 7:00 am)42% (Jan 20, 1:00 pm)29.55 "Hg (Jan 12, 4:00 pm)
Average44 °F84%30.29 "Hg
* Reported Jan 7 11:00 am — Jan 22 11:00 am, Swansea, Weather by CustomWeather, © 2017

Note: Actual official high and low records may vary slightly from our data, if they occured in-between our weather recording intervals... More about our weather records

Advertising

Swansea Weather History for the Previous 24 Hours

Scroll right to see more
 ConditionsComfort  
Time TempWeatherWind HumidityBarometerVisibility
11:00 am
Sun, Jan 22
45 °FCool.14 mph84%30.28 "HgN/A
9:00 am44 °FQuite cool.17 mph87%30.26 "HgN/A
8:00 am40 °FChilly.25 mph90%30.24 "HgN/A
7:00 am39 °FChilly.22 mph92%30.23 "HgN/A
6:00 am38 °FChilly.17 mph92%30.23 "HgN/A
5:00 am38 °FChilly.20 mph93%30.24 "HgN/A
4:00 am38 °FChilly.17 mph93%30.25 "HgN/A
3:00 am38 °FChilly.18 mph88%30.25 "HgN/A
2:00 am38 °FChilly.16 mph86%30.25 "HgN/A
1:00 am38 °FChilly.18 mph84%30.26 "HgN/A
12:00 am37 °FChilly.16 mph82%30.26 "HgN/A
11:00 pm
Sat, Jan 21
37 °FChilly.14 mph80%30.27 "HgN/A
10:00 pm38 °FChilly.14 mph77%30.27 "HgN/A
9:00 pm37 °FChilly.16 mph76%30.27 "HgN/A
8:00 pm37 °FChilly.15 mph75%30.27 "HgN/A
7:00 pm37 °FChilly.14 mph77%30.27 "HgN/A
6:00 pm37 °FChilly.17 mph75%30.28 "HgN/A
5:00 pm37 °FChilly.16 mph72%30.28 "HgN/A
4:00 pm38 °FChilly.16 mph71%30.28 "HgN/A
3:00 pm39 °FChilly.15 mph65%30.29 "HgN/A
2:00 pm40 °FChilly.14 mph58%30.30 "HgN/A
1:00 pm41 °FQuite cool.13 mph61%30.32 "HgN/A
12:00 pm40 °FChilly.14 mph65%30.34 "HgN/A
Weather by CustomWeather, © 2017

See weather overviewHow to use our weather pages